Zurück zum Katalog

CSTP-4.2

AktivWissenschaftSSO
NORAD 64883·PAYLOAD·🇷🇺 Russia
Dieser Satellitenname wurde noch nicht durch offizielle Quellen bestätigt.

Gestartet Jul 25, 2025 von Vostochny Cosmodrome

Loading…

Nächste Überflüge (nächste 24 Stunden)

TLE

AktuellSource: Space-Track

Epoche: Sep 14, 2026, 14:50 UTC

1 64883U 25155H   26257.61843336  .00007369  00000-0  24943-3 0  9993
2 64883  97.4682 226.5392 0006072 199.6339 160.4669 15.30885369 94431

Verfolge CSTP-4.2 in Echtzeit mit AllMySat

Download on the App Store